Date String (YYYY-MM-DD hh:mm:ss) UTC,Instrument flags,Ambient pressure (hPa),Sample flow (lpm),Bypass flow (lpm),Sample temperature (°C),Ambient temperature (°C),ASC tube jacket temperature (°C),LED temperature (°C),Box temperature (°C),Sample RH (%),Span deviation,Mass concentration (μg/m³),Mass concentration (μg/m³),Mass concentration (μg/m³)
DateTimeUTC,F1_M11,P_M11,Q1_M11,Q2_M11,T1_M11,T2_M11,T3_M11,T4_M11,T5_M11,U1_M11,ZSPAN_M11,X2_M11,X0_M11,X1_M11
2022-05-21 23:00:00,,0830.9,5.01,0.00,23.6,22.8,00.0,32.6,25.5,19.3,0000.0,0000.05,0000.22,0000.01
2022-05-21 23:01:00,,0830.9,4.99,0.00,23.6,22.8,00.0,32.6,25.5,20.7,0000.0,0000.06,0000.25,0000.01
2022-05-21 23:02:00,,0830.9,5.00,0.00,23.6,22.9,00.0,32.6,25.5,21.5,0000.0,0000.06,0000.25,0000.01
2022-05-21 23:03:00,,0830.9,5.02,0.00,23.7,22.9,00.0,32.6,25.5,21.0,0000.0,0000.06,0000.25,0000.01
2022-05-21 23:04:00,,0830.9,4.99,0.00,23.7,22.9,00.0,32.6,25.5,21.2,0000.0,0000.06,0000.25,0000.01
2022-05-21 23:05:00,,0830.9,5.01,0.00,23.7,22.9,00.0,32.6,25.5,21.9,0000.0,0000.06,0000.25,0000.01
2022-05-21 23:06:00,,0830.9,5.00,0.00,23.7,22.9,00.0,32.6,25.5,21.9,0000.0,0000.06,0000.26,0000.01
2022-05-21 23:07:00,,0830.9,5.00,0.00,23.7,23.0,00.0,32.6,25.5,20.6,0000.0,0000.06,0000.25,0000.01
2022-05-21 23:08:00,,0830.9,5.01,0.00,23.7,23.0,00.0,32.6,25.5,21.4,0000.0,0000.05,0000.61,0000.01
2022-05-21 23:09:00,,0830.9,4.99,0.00,23.7,23.0,00.0,32.6,25.6,22.2,0000.0,0000.05,0000.63,0000.01
2022-05-21 23:10:00,,0830.9,5.01,0.00,23.7,23.0,00.0,32.6,25.5,21.8,0000.0,0000.05,0000.57,0000.01
2022-05-21 23:11:00,,0831.0,5.00,0.00,23.7,23.0,00.0,32.6,25.5,20.6,0000.0,0000.03,0000.46,0000.01
2022-05-21 23:12:00,,0831.0,5.00,0.00,23.7,23.0,00.0,32.6,25.5,19.9,0000.0,0000.02,0000.44,0000.01
2022-05-21 23:13:00,,0831.0,5.01,0.00,23.7,23.0,00.0,32.6,25.5,19.2,0000.0,0000.02,0000.44,0000.01
2022-05-21 23:14:00,,0831.0,5.00,0.00,23.7,23.0,00.0,32.7,25.5,19.2,0000.0,0000.02,0000.44,0000.01
2022-05-21 23:15:00,,0831.0,5.00,0.00,23.7,23.0,00.0,32.7,25.6,19.7,0000.0,0000.02,0000.44,0000.01
2022-05-21 23:16:00,,0831.0,5.00,0.00,23.7,23.0,00.0,32.7,25.6,19.0,0000.0,0000.02,0000.43,0000.01
2022-05-21 23:17:00,,0831.1,5.00,0.00,23.7,23.0,00.0,32.7,25.6,19.0,0000.0,0000.01,0000.42,0000.01
2022-05-21 23:18:00,,0831.1,4.99,0.00,23.7,23.0,00.0,32.7,25.5,21.5,0000.0,0000.01,0000.40,0000.01
2022-05-21 23:19:00,,0831.0,5.00,0.00,23.7,23.0,00.0,32.7,25.5,20.7,0000.0,0000.01,0000.01,0000.01
2022-05-21 23:20:00,,0831.1,4.99,0.00,23.7,23.0,00.0,32.7,25.5,20.1,0000.0,0000.01,0000.01,0000.01
2022-05-21 23:21:00,,0831.0,5.01,0.00,23.7,23.0,00.0,32.7,25.5,20.6,0000.0,0000.01,0000.01,0000.01
2022-05-21 23:22:00,,0831.0,4.99,0.00,23.7,23.0,00.0,32.7,25.5,22.1,0000.0,0000.01,0000.01,0000.01
2022-05-21 23:23:00,,0831.0,5.01,0.00,23.7,23.0,00.0,32.7,25.5,22.3,0000.0,0000.00,0000.01,0000.00
2022-05-21 23:24:00,,0831.0,5.00,0.00,23.7,22.9,00.0,32.7,25.5,21.9,0000.0,0000.00,0000.01,0000.00
2022-05-21 23:25:00,,0831.1,4.99,0.00,23.7,22.9,00.0,32.7,25.5,21.4,0000.0,0000.01,0000.01,0000.01
2022-05-21 23:26:00,,0831.1,5.00,0.00,23.7,22.8,00.0,32.7,25.5,20.8,0000.0,0000.01,0000.02,0000.01
2022-05-21 23:27:00,,0831.2,5.01,0.00,23.7,22.8,00.0,32.7,25.5,21.0,0000.0,0000.01,0000.02,0000.01
2022-05-21 23:28:00,,0831.2,4.99,0.00,23.7,22.8,00.0,32.7,25.5,20.7,0000.0,0000.01,0000.02,0000.00
2022-05-21 23:29:00,,0831.2,5.01,0.00,23.6,22.7,00.0,32.7,25.4,20.5,0000.0,0000.01,0000.02,0000.00
2022-05-21 23:30:00,,0831.2,5.00,0.00,23.6,22.8,00.0,32.7,25.4,20.8,0000.0,0000.02,0000.04,0000.01
2022-05-21 23:31:00,,0831.2,5.01,0.00,23.6,22.8,00.0,32.7,25.4,21.0,0000.0,0000.04,0000.07,0000.01
2022-05-21 23:32:00,,0831.1,4.99,0.00,23.6,22.7,00.0,32.7,25.3,21.3,0000.0,0000.04,0000.07,0000.01
2022-05-21 23:33:00,,0831.2,5.00,0.00,23.6,22.7,00.0,32.6,25.3,20.8,0000.0,0000.04,0000.07,0000.01
2022-05-21 23:34:00,,0831.1,5.01,0.00,23.6,22.7,00.0,32.6,25.3,21.0,0000.0,0000.04,0000.09,0000.01
2022-05-21 23:35:00,,0831.2,4.99,0.00,23.5,22.7,00.0,32.6,25.3,21.0,0000.0,0000.07,0000.16,0000.01
2022-05-21 23:36:00,,0831.2,5.01,0.00,23.5,22.7,00.0,32.6,25.3,21.2,0000.0,0000.07,0000.16,0000.01
2022-05-21 23:37:00,,0831.1,4.99,0.00,23.5,22.7,00.0,32.6,25.3,21.4,0000.0,0000.06,0000.15,0000.01
2022-05-21 23:38:00,,0831.1,5.01,0.00,23.5,22.6,00.0,32.6,25.3,20.2,0000.0,0000.06,0000.15,0000.01
2022-05-21 23:39:00,,0831.1,5.00,0.00,23.5,22.6,00.0,32.6,25.2,20.3,0000.0,0000.06,0000.15,0000.01
2022-05-21 23:40:00,,0831.2,5.00,0.00,23.5,22.6,00.0,32.6,25.2,20.4,0000.0,0000.06,0000.15,0000.01
2022-05-21 23:41:00,,0831.2,5.00,0.00,23.5,22.6,00.0,32.6,25.2,21.2,0000.0,0000.05,0000.22,0000.00
2022-05-21 23:42:00,,0831.2,5.00,0.00,23.5,22.6,00.0,32.6,25.2,21.9,0000.0,0000.04,0000.25,0000.00
2022-05-21 23:43:00,,0831.2,5.00,0.00,23.5,22.6,00.0,32.6,25.2,22.2,0000.0,0000.04,0000.25,0000.00
2022-05-21 23:44:00,,0831.2,5.00,0.00,23.5,22.6,00.0,32.5,25.2,20.8,0000.0,0000.05,0000.28,0000.00
2022-05-21 23:45:00,,0831.2,5.00,0.00,23.5,22.6,00.0,32.5,25.2,20.0,0000.0,0000.05,0000.97,0000.00
2022-05-21 23:46:00,,0831.2,5.00,0.00,23.5,22.6,00.0,32.5,25.2,20.5,0000.0,0000.03,0001.60,0000.00
2022-05-21 23:47:00,,0831.2,5.00,0.00,23.5,22.6,00.0,32.5,25.2,20.0,0000.0,0000.03,0001.60,0000.00
2022-05-21 23:48:00,,0831.2,4.99,0.00,23.5,22.6,00.0,32.5,25.2,19.8,0000.0,0000.04,0001.64,0000.00
2022-05-21 23:49:00,,0831.2,5.01,0.00,23.5,22.6,00.0,32.5,25.2,20.6,0000.0,0000.04,0001.64,0000.00
2022-05-21 23:50:00,,0831.2,5.00,0.00,23.4,22.6,00.0,32.5,25.2,20.2,0000.0,0000.04,0001.72,0000.00
2022-05-21 23:51:00,,0831.2,5.00,0.00,23.4,22.6,00.0,32.5,25.2,19.8,0000.0,0000.05,0001.75,0000.00
2022-05-21 23:52:00,,0831.2,4.99,0.00,23.4,22.6,00.0,32.5,25.2,19.7,0000.0,0000.04,0001.67,0000.00
2022-05-21 23:53:00,,0831.2,5.01,0.00,23.4,22.6,00.0,32.5,25.2,20.3,0000.0,0000.04,0001.61,0000.00
2022-05-21 23:54:00,,0831.1,4.99,0.00,23.4,22.6,00.0,32.5,25.2,20.1,0000.0,0000.04,0001.60,0000.00
2022-05-21 23:55:00,,0831.1,5.00,0.00,23.4,22.6,00.0,32.5,25.2,20.5,0000.0,0000.02,0001.56,0000.00
2022-05-21 23:56:00,,0831.2,5.00,0.00,23.4,22.6,00.0,32.5,25.2,20.8,0000.0,0000.02,0000.87,0000.00
2022-05-21 23:57:00,,0831.1,5.01,0.00,23.4,22.7,00.0,32.5,25.2,20.9,0000.0,0000.02,0000.16,0000.00
2022-05-21 23:58:00,,0831.1,4.99,0.00,23.4,22.7,00.0,32.5,25.2,20.9,0000.0,0000.02,0000.15,0000.00
2022-05-21 23:59:00,,0831.1,5.00,0.00,23.4,22.6,00.0,32.5,25.2,20.5,0000.0,0000.01,0000.11,0000.00
